Year,Month,Day,Hour,Minute,Value (Times are PST for temperature in C)
2015,06,21,00,00,12.30
2015,06,21,00,01,12.30
2015,06,21,00,02,12.30
2015,06,21,00,03,12.30
2015,06,21,00,04,12.30
2015,06,21,00,05,12.30
2015,06,21,00,06,12.30
2015,06,21,00,07,12.30
2015,06,21,00,08,12.30
2015,06,21,00,09,12.30
2015,06,21,00,10,12.30
2015,06,21,00,11,12.20
2015,06,21,00,12,12.20
2015,06,21,00,13,12.20
2015,06,21,00,14,12.20
2015,06,21,00,15,12.20
2015,06,21,00,16,12.10
2015,06,21,00,17,12.20
2015,06,21,00,18,12.20
2015,06,21,00,19,12.20
2015,06,21,00,20,12.10
2015,06,21,00,21,12.10
2015,06,21,00,22,12.10
2015,06,21,00,23,12.10
2015,06,21,00,24,12.10
2015,06,21,00,25,12.10
2015,06,21,00,26,12.10
2015,06,21,00,27,12.10
2015,06,21,00,28,12.10
2015,06,21,00,29,12.10
2015,06,21,00,30,12.10
2015,06,21,00,31,12.10
2015,06,21,00,32,12.00
2015,06,21,00,33,12.00
2015,06,21,00,34,12.00
2015,06,21,00,35,12.00
2015,06,21,00,36,11.90
2015,06,21,00,37,11.90
2015,06,21,00,38,11.90
2015,06,21,00,39,11.90
2015,06,21,00,40,11.80
2015,06,21,00,41,11.80
2015,06,21,00,42,11.80
2015,06,21,00,43,11.80
2015,06,21,00,44,11.80
2015,06,21,00,45,11.80
2015,06,21,00,46,11.80
2015,06,21,00,47,11.80
2015,06,21,00,48,11.80
2015,06,21,00,49,11.70
2015,06,21,00,50,11.70
2015,06,21,00,51,11.70
2015,06,21,00,52,11.70
2015,06,21,00,53,11.60
2015,06,21,00,54,11.60
2015,06,21,00,55,11.60
2015,06,21,00,56,11.60
2015,06,21,00,57,11.60
2015,06,21,00,58,11.60
2015,06,21,00,59,11.50
2015,06,21,01,00,11.50
2015,06,21,01,01,11.50
2015,06,21,01,02,11.40
2015,06,21,01,03,11.40
2015,06,21,01,04,11.40
2015,06,21,01,05,11.40
2015,06,21,01,06,11.30
2015,06,21,01,07,11.30
2015,06,21,01,08,11.30
2015,06,21,01,09,11.30
2015,06,21,01,10,11.20
2015,06,21,01,11,11.20
2015,06,21,01,12,11.20
2015,06,21,01,13,11.20
2015,06,21,01,14,11.20
2015,06,21,01,15,11.20
2015,06,21,01,16,11.20
2015,06,21,01,17,11.20
2015,06,21,01,18,11.20
2015,06,21,01,19,11.20
2015,06,21,01,20,11.20
2015,06,21,01,21,11.30
2015,06,21,01,22,11.30
2015,06,21,01,23,11.30
2015,06,21,01,24,11.30
2015,06,21,01,25,11.30
2015,06,21,01,26,11.30
2015,06,21,01,27,11.30
2015,06,21,01,28,11.30
2015,06,21,01,29,11.30
2015,06,21,01,30,11.30
2015,06,21,01,31,11.30
2015,06,21,01,32,11.20
2015,06,21,01,33,11.20
2015,06,21,01,34,11.20
2015,06,21,01,35,11.20
2015,06,21,01,36,11.20
2015,06,21,01,37,11.10
2015,06,21,01,38,11.10
2015,06,21,01,39,11.10
2015,06,21,01,40,11.10
2015,06,21,01,41,11.00
2015,06,21,01,42,11.00
2015,06,21,01,43,11.00
2015,06,21,01,44,10.90
2015,06,21,01,45,10.90
2015,06,21,01,46,10.90
2015,06,21,01,47,10.90
2015,06,21,01,48,10.90
2015,06,21,01,49,10.90
2015,06,21,01,50,10.90
2015,06,21,01,51,10.90
2015,06,21,01,52,10.80
2015,06,21,01,53,10.90
2015,06,21,01,54,10.90
2015,06,21,01,55,10.90
2015,06,21,01,56,10.90
2015,06,21,01,57,10.90
2015,06,21,01,58,10.90
2015,06,21,01,59,11.00
2015,06,21,02,00,11.10
2015,06,21,02,01,11.20
2015,06,21,02,02,11.30
2015,06,21,02,03,11.30
2015,06,21,02,04,11.30
2015,06,21,02,05,11.40
2015,06,21,02,06,11.30
2015,06,21,02,07,11.30
2015,06,21,02,08,11.30
2015,06,21,02,09,11.30
2015,06,21,02,10,11.30
2015,06,21,02,11,11.20
2015,06,21,02,12,11.20
2015,06,21,02,13,11.10
2015,06,21,02,14,11.10
2015,06,21,02,15,11.00
2015,06,21,02,16,11.00
2015,06,21,02,17,10.90
2015,06,21,02,18,10.90
2015,06,21,02,19,10.90
2015,06,21,02,20,10.90
2015,06,21,02,21,10.90
2015,06,21,02,22,10.90
2015,06,21,02,23,10.90
2015,06,21,02,24,11.00
2015,06,21,02,25,11.10
2015,06,21,02,26,11.10
2015,06,21,02,27,11.20
2015,06,21,02,28,11.20
2015,06,21,02,29,11.20
2015,06,21,02,30,11.20
2015,06,21,02,31,11.20
2015,06,21,02,32,11.20
2015,06,21,02,33,11.20
2015,06,21,02,34,11.10
2015,06,21,02,35,11.10
2015,06,21,02,36,11.10
2015,06,21,02,37,11.10
2015,06,21,02,38,11.10
2015,06,21,02,39,11.10
2015,06,21,02,40,11.10
2015,06,21,02,41,11.00
2015,06,21,02,42,11.00
2015,06,21,02,43,11.00
2015,06,21,02,44,11.10
2015,06,21,02,45,11.00
2015,06,21,02,46,11.00
2015,06,21,02,47,11.00
2015,06,21,02,48,11.00
2015,06,21,02,49,10.90
2015,06,21,02,50,10.90
2015,06,21,02,51,10.90
2015,06,21,02,52,10.90
2015,06,21,02,53,10.80
2015,06,21,02,54,10.80
2015,06,21,02,55,10.80
2015,06,21,02,56,10.80
2015,06,21,02,57,10.80
2015,06,21,02,58,10.80
2015,06,21,02,59,10.80
2015,06,21,03,00,10.80
2015,06,21,03,01,10.80
2015,06,21,03,02,10.80
2015,06,21,03,06,10.80
2015,06,21,03,07,10.80
2015,06,21,03,08,10.70
2015,06,21,03,09,10.70
2015,06,21,03,10,10.70
2015,06,21,03,11,10.70
2015,06,21,03,12,10.70
2015,06,21,03,13,10.70
2015,06,21,03,14,10.70
2015,06,21,03,15,10.70
2015,06,21,03,16,10.70
2015,06,21,03,17,10.80
2015,06,21,03,18,10.80
2015,06,21,03,19,10.80
2015,06,21,03,20,10.80
2015,06,21,03,21,10.80
2015,06,21,03,22,10.80
2015,06,21,03,23,10.80
2015,06,21,03,24,10.80
2015,06,21,03,25,10.80
2015,06,21,03,26,10.80
2015,06,21,03,27,10.90
2015,06,21,03,28,10.90
2015,06,21,03,29,11.00
2015,06,21,03,30,11.10
2015,06,21,03,31,11.20
2015,06,21,03,32,11.20
2015,06,21,03,33,11.20
2015,06,21,03,34,11.20
2015,06,21,03,35,11.20
2015,06,21,03,36,11.20
2015,06,21,03,37,11.20
2015,06,21,03,38,11.20
2015,06,21,03,39,11.20
2015,06,21,03,40,11.20
2015,06,21,03,41,11.20
2015,06,21,03,42,11.20
2015,06,21,03,43,11.20
2015,06,21,05,58,13.20
2015,06,21,05,59,13.20
2015,06,21,06,00,13.30
2015,06,21,06,01,13.30
2015,06,21,06,02,13.40
2015,06,21,06,03,13.40
2015,06,21,06,04,13.40
2015,06,21,06,05,13.50
2015,06,21,06,06,13.50
2015,06,21,06,07,13.60
2015,06,21,06,08,13.60
2015,06,21,06,09,13.70
2015,06,21,06,10,13.70
2015,06,21,06,11,13.80
2015,06,21,06,12,13.80
2015,06,21,06,13,13.80
2015,06,21,06,14,13.90
2015,06,21,06,15,13.90
2015,06,21,06,16,14.00
2015,06,21,06,17,14.00
2015,06,21,06,18,14.10
2015,06,21,06,19,14.10
2015,06,21,06,20,14.10
2015,06,21,06,21,14.20
2015,06,21,06,22,14.20
2015,06,21,06,23,14.20
2015,06,21,06,24,14.20
2015,06,21,06,25,14.30
2015,06,21,06,26,14.30
2015,06,21,06,27,14.30
2015,06,21,06,28,14.40
2015,06,21,06,29,14.40
2015,06,21,06,30,14.50
2015,06,21,06,31,14.50
2015,06,21,06,32,14.60
2015,06,21,06,33,14.60
2015,06,21,06,34,14.70
2015,06,21,06,35,14.70
2015,06,21,06,36,14.70
2015,06,21,06,37,14.80
2015,06,21,06,38,14.80
2015,06,21,06,39,14.80
2015,06,21,06,40,14.90
2015,06,21,06,41,14.90
2015,06,21,06,42,14.90
2015,06,21,06,43,14.90
2015,06,21,06,44,14.90
2015,06,21,06,45,14.90
2015,06,21,06,46,15.00
2015,06,21,06,47,15.00
2015,06,21,06,48,15.00
2015,06,21,06,49,15.00
2015,06,21,06,50,15.00
2015,06,21,06,51,15.00
2015,06,21,06,52,15.00
2015,06,21,06,53,15.00
2015,06,21,06,54,15.00
2015,06,21,06,55,15.00
2015,06,21,06,56,15.00
2015,06,21,06,57,15.00
2015,06,21,06,58,15.10
2015,06,21,06,59,15.10
2015,06,21,07,00,15.10
2015,06,21,07,01,15.10
2015,06,21,07,02,15.20
2015,06,21,07,03,15.20
2015,06,21,07,04,15.20
2015,06,21,07,05,15.20
2015,06,21,07,06,15.20
2015,06,21,07,07,15.20
2015,06,21,07,08,15.20
2015,06,21,07,09,15.20
2015,06,21,07,10,15.20
2015,06,21,07,11,15.20
2015,06,21,07,12,15.20
2015,06,21,07,13,15.10
2015,06,21,07,14,15.10
2015,06,21,07,15,15.10
2015,06,21,07,16,15.10
2015,06,21,07,17,15.10
2015,06,21,07,18,15.10
2015,06,21,07,19,15.10
2015,06,21,07,20,15.10
2015,06,21,07,21,15.10
2015,06,21,07,22,15.10
2015,06,21,07,23,15.10
2015,06,21,07,24,15.10
2015,06,21,07,25,15.10
2015,06,21,07,26,15.20
2015,06,21,07,27,15.20
2015,06,21,07,28,15.20
2015,06,21,07,29,15.20
2015,06,21,07,30,15.20
2015,06,21,07,31,15.20
2015,06,21,07,32,15.30
2015,06,21,07,33,15.40
2015,06,21,07,34,15.40
2015,06,21,07,35,15.50
2015,06,21,07,36,15.50
2015,06,21,07,37,15.60
2015,06,21,07,38,15.60
2015,06,21,07,39,15.70
2015,06,21,07,40,15.80
2015,06,21,07,41,15.80
2015,06,21,07,42,15.90
2015,06,21,07,43,16.00
2015,06,21,07,44,16.10
2015,06,21,07,45,16.10
2015,06,21,07,46,16.10
2015,06,21,07,47,16.10
2015,06,21,07,48,16.20
2015,06,21,07,49,16.20
2015,06,21,07,50,16.30
2015,06,21,07,51,16.30
2015,06,21,07,52,16.30
2015,06,21,07,53,16.40
2015,06,21,07,54,16.40
2015,06,21,07,55,16.50
2015,06,21,07,56,16.50
2015,06,21,07,57,16.60
2015,06,21,07,58,16.50
2015,06,21,07,59,16.50
2015,06,21,08,00,16.50
2015,06,21,08,01,16.60
2015,06,21,08,02,16.60
2015,06,21,08,03,16.70
2015,06,21,08,04,16.70
2015,06,21,08,05,16.80
2015,06,21,08,06,16.80
2015,06,21,08,07,16.90
2015,06,21,08,08,16.90
2015,06,21,08,09,17.00
2015,06,21,08,10,17.10
2015,06,21,08,11,17.10
2015,06,21,08,12,17.00
2015,06,21,08,13,17.00
2015,06,21,08,14,17.00
2015,06,21,08,15,17.00
2015,06,21,08,16,17.10
2015,06,21,08,17,17.10
2015,06,21,08,18,17.20
2015,06,21,08,19,17.30
2015,06,21,08,20,17.30
2015,06,21,08,21,17.40
2015,06,21,08,22,17.40
2015,06,21,08,23,17.50
2015,06,21,08,24,17.50
2015,06,21,08,25,17.60
2015,06,21,08,26,17.70
2015,06,21,08,27,17.70
2015,06,21,08,28,17.70
2015,06,21,08,29,17.60
2015,06,21,08,30,17.60
2015,06,21,08,31,17.60
2015,06,21,08,32,17.60
2015,06,21,08,33,17.60
2015,06,21,08,34,17.60
2015,06,21,08,35,17.70
2015,06,21,08,36,17.60
2015,06,21,08,37,17.60
2015,06,21,08,38,17.70
2015,06,21,08,39,17.70
2015,06,21,08,40,17.70
2015,06,21,08,41,17.70
2015,06,21,08,42,17.70
2015,06,21,08,43,17.80
2015,06,21,08,44,17.80
2015,06,21,08,45,17.80
2015,06,21,08,46,17.80
2015,06,21,08,47,17.80
2015,06,21,08,48,17.90
2015,06,21,08,49,18.00
2015,06,21,08,50,18.00
2015,06,21,08,51,18.10
2015,06,21,08,52,18.20
2015,06,21,08,53,18.20
2015,06,21,08,54,18.20
2015,06,21,08,55,18.20
2015,06,21,08,56,18.30
2015,06,21,08,57,18.40
2015,06,21,08,58,18.40
2015,06,21,08,59,18.40
2015,06,21,09,00,18.30
2015,06,21,09,01,18.30
2015,06,21,09,02,18.10
2015,06,21,09,03,18.00
2015,06,21,09,04,17.90
2015,06,21,09,05,17.90
2015,06,21,09,06,17.90
2015,06,21,09,07,17.90
2015,06,21,09,08,17.90
2015,06,21,09,09,18.00
2015,06,21,09,10,18.10
2015,06,21,09,11,18.20
2015,06,21,09,12,18.20
2015,06,21,09,13,18.30
2015,06,21,09,14,18.30
2015,06,21,09,15,18.30
2015,06,21,09,16,18.30
2015,06,21,09,17,18.20
2015,06,21,09,18,18.20
2015,06,21,09,19,18.20
2015,06,21,09,20,18.20
2015,06,21,09,21,18.20
2015,06,21,09,22,18.20
2015,06,21,09,23,18.30
2015,06,21,09,24,18.30
2015,06,21,09,25,18.30
2015,06,21,09,26,18.30
2015,06,21,09,27,18.40
2015,06,21,09,28,18.40
2015,06,21,09,29,18.50
2015,06,21,09,30,18.50
2015,06,21,09,31,18.40
2015,06,21,09,32,18.40
2015,06,21,09,33,18.40
2015,06,21,09,34,18.40
2015,06,21,09,35,18.40
2015,06,21,09,36,18.50
2015,06,21,09,37,18.60
2015,06,21,09,38,18.70
2015,06,21,09,39,18.70
2015,06,21,09,40,18.70
2015,06,21,09,41,18.70
2015,06,21,09,42,18.70
2015,06,21,09,43,18.70
2015,06,21,09,44,18.60
2015,06,21,09,45,18.60
2015,06,21,09,46,18.60
2015,06,21,09,47,18.70
2015,06,21,09,48,18.70
2015,06,21,09,49,18.60
2015,06,21,09,50,18.50
2015,06,21,09,51,18.40
2015,06,21,09,52,18.40
2015,06,21,09,53,18.40
2015,06,21,09,54,18.50
2015,06,21,09,55,18.70
2015,06,21,09,56,18.70
2015,06,21,09,57,18.70
2015,06,21,09,58,18.70
2015,06,21,09,59,18.70
2015,06,21,10,00,18.80
2015,06,21,10,01,18.90
2015,06,21,10,02,19.00
2015,06,21,10,03,19.10
2015,06,21,10,04,19.20
2015,06,21,10,05,19.30
2015,06,21,10,06,19.40
2015,06,21,10,07,19.50
2015,06,21,10,08,19.60
2015,06,21,10,09,19.70
2015,06,21,10,10,19.70
2015,06,21,10,11,19.80
2015,06,21,10,12,19.70
2015,06,21,10,13,19.70
2015,06,21,10,14,19.60
2015,06,21,10,15,19.60
2015,06,21,10,16,19.40
2015,06,21,10,17,19.30
2015,06,21,10,18,19.30
2015,06,21,10,19,19.30
2015,06,21,10,20,19.30
2015,06,21,10,21,19.30
2015,06,21,10,22,19.30
2015,06,21,10,23,19.20
2015,06,21,10,24,19.20
2015,06,21,10,25,19.20
2015,06,21,10,26,19.20
2015,06,21,10,27,19.20
2015,06,21,10,28,19.30
2015,06,21,10,29,19.30
2015,06,21,10,30,19.40
2015,06,21,10,31,19.40
2015,06,21,10,32,19.40
2015,06,21,10,33,19.40
2015,06,21,10,34,19.40
2015,06,21,10,35,19.40
2015,06,21,10,36,19.40
2015,06,21,10,37,19.30
2015,06,21,10,38,19.40
2015,06,21,10,39,19.50
2015,06,21,10,40,19.70
2015,06,21,10,41,19.80
2015,06,21,10,42,20.00
2015,06,21,10,43,20.20
2015,06,21,10,44,20.20
2015,06,21,10,45,20.20
2015,06,21,10,46,20.20
2015,06,21,10,47,20.20
2015,06,21,10,48,20.20
2015,06,21,10,49,20.20
2015,06,21,10,50,20.20
2015,06,21,10,51,20.20
2015,06,21,10,52,20.30
2015,06,21,10,53,20.30
2015,06,21,10,54,20.30
2015,06,21,10,55,20.20
2015,06,21,10,56,20.20
2015,06,21,10,57,20.20
2015,06,21,10,58,20.20
2015,06,21,10,59,20.20
2015,06,21,11,00,20.20
2015,06,21,11,01,20.30
2015,06,21,11,02,20.30
2015,06,21,11,03,20.30
2015,06,21,11,04,20.30
2015,06,21,11,05,20.30
2015,06,21,11,06,20.30
2015,06,21,11,07,20.30
2015,06,21,11,08,20.30
2015,06,21,11,09,20.30
2015,06,21,11,10,20.40
2015,06,21,11,11,20.40
2015,06,21,11,12,20.40
2015,06,21,11,13,20.40
2015,06,21,11,14,20.40
2015,06,21,11,15,20.40
2015,06,21,11,16,20.40
2015,06,21,11,17,20.40
2015,06,21,11,18,20.40
2015,06,21,11,19,20.30
2015,06,21,11,20,20.40
2015,06,21,11,21,20.40
2015,06,21,11,22,20.50
2015,06,21,11,23,20.60
2015,06,21,11,24,20.60
2015,06,21,11,25,20.70
2015,06,21,11,26,20.90
2015,06,21,11,27,21.00
2015,06,21,11,28,21.10
2015,06,21,11,29,21.10
2015,06,21,11,30,21.20
2015,06,21,11,31,21.20
2015,06,21,11,32,21.20
2015,06,21,11,33,21.20
2015,06,21,11,34,21.20
2015,06,21,11,35,21.20
2015,06,21,11,36,21.20
2015,06,21,11,37,21.20
2015,06,21,11,38,21.20
2015,06,21,11,39,21.10
2015,06,21,11,40,21.00
2015,06,21,11,41,20.90
2015,06,21,11,42,20.80
2015,06,21,11,43,20.70
2015,06,21,11,44,20.60
2015,06,21,11,45,20.60
2015,06,21,11,46,20.50
2015,06,21,11,47,20.50
2015,06,21,11,48,20.60
2015,06,21,11,49,20.60
2015,06,21,11,50,20.60
2015,06,21,11,51,20.70
2015,06,21,11,52,20.70
2015,06,21,11,53,20.80
2015,06,21,11,54,20.90
2015,06,21,11,55,20.90
2015,06,21,11,56,20.90
2015,06,21,11,57,20.90
2015,06,21,11,58,20.80
2015,06,21,11,59,20.70
2015,06,21,12,00,20.60
2015,06,21,12,01,20.60
2015,06,21,12,02,20.60
2015,06,21,12,03,20.70
2015,06,21,12,04,20.70
2015,06,21,12,05,20.80
2015,06,21,12,06,20.80
2015,06,21,12,07,20.90
2015,06,21,12,08,21.00
2015,06,21,12,09,21.10
2015,06,21,12,10,21.30
2015,06,21,12,11,21.40
2015,06,21,12,12,21.50
2015,06,21,12,13,21.50
2015,06,21,12,14,21.60
2015,06,21,12,15,21.60
2015,06,21,12,16,21.70
2015,06,21,12,17,21.70
2015,06,21,12,18,21.70
2015,06,21,12,19,21.60
2015,06,21,12,20,21.60
2015,06,21,12,21,21.70
2015,06,21,12,22,21.70
2015,06,21,12,23,21.80
2015,06,21,12,24,21.80
2015,06,21,12,25,21.90
2015,06,21,12,26,22.00
2015,06,21,12,27,22.00
2015,06,21,12,28,22.00
2015,06,21,12,29,21.90
2015,06,21,12,30,21.90
2015,06,21,12,31,21.90
2015,06,21,12,32,22.00
2015,06,21,12,33,22.10
2015,06,21,12,34,22.10
2015,06,21,12,35,22.20
2015,06,21,12,36,22.20
2015,06,21,12,37,22.20
2015,06,21,12,38,22.20
2015,06,21,12,39,22.20
2015,06,21,12,40,22.30
2015,06,21,12,41,22.40
2015,06,21,12,42,22.50
2015,06,21,12,43,22.60
2015,06,21,12,44,22.70
2015,06,21,12,45,22.70
2015,06,21,12,46,22.60
2015,06,21,12,47,22.60
2015,06,21,12,48,22.50
2015,06,21,12,49,22.40
2015,06,21,12,50,22.40
2015,06,21,12,51,22.30
2015,06,21,12,52,22.30
2015,06,21,12,53,22.30
2015,06,21,12,54,22.30
2015,06,21,12,55,22.30
2015,06,21,12,56,22.30
2015,06,21,12,57,22.30
2015,06,21,12,58,22.20
2015,06,21,12,59,22.20
2015,06,21,13,00,22.20
2015,06,21,13,01,22.20
2015,06,21,13,02,22.30
2015,06,21,13,03,22.40
2015,06,21,13,04,22.50
2015,06,21,13,05,22.60
2015,06,21,13,06,22.70
2015,06,21,13,07,22.80
2015,06,21,13,08,22.90
2015,06,21,13,09,23.10
2015,06,21,13,10,23.20
2015,06,21,13,11,23.20
2015,06,21,13,12,23.10
2015,06,21,13,13,22.90
2015,06,21,13,14,22.80
2015,06,21,13,15,22.70
2015,06,21,13,16,22.80
2015,06,21,13,17,22.90
2015,06,21,13,18,23.00
2015,06,21,13,19,23.10
2015,06,21,13,20,23.20
2015,06,21,13,21,23.30
2015,06,21,13,22,23.30
2015,06,21,13,23,23.30
2015,06,21,13,24,23.30
2015,06,21,13,25,23.30
2015,06,21,13,26,23.30
2015,06,21,13,27,23.30
2015,06,21,13,28,23.20
2015,06,21,13,29,23.10
2015,06,21,13,30,23.00
2015,06,21,13,31,22.90
2015,06,21,13,32,22.90
2015,06,21,13,33,22.90
2015,06,21,13,34,22.90
2015,06,21,13,35,22.90
2015,06,21,13,36,22.90
2015,06,21,13,37,22.90
2015,06,21,13,38,23.00
2015,06,21,13,39,23.10
2015,06,21,13,40,23.20
2015,06,21,13,41,23.10
2015,06,21,13,42,23.10
2015,06,21,13,43,23.10
2015,06,21,13,44,23.10
2015,06,21,13,45,23.10
2015,06,21,13,46,23.10
2015,06,21,13,47,23.00
2015,06,21,13,48,23.00
2015,06,21,13,49,23.10
2015,06,21,13,50,23.10
2015,06,21,13,51,23.20
2015,06,21,13,52,23.20
2015,06,21,13,53,23.20
2015,06,21,13,54,23.30
2015,06,21,13,55,23.30
2015,06,21,13,56,23.40
2015,06,21,13,57,23.40
2015,06,21,13,58,23.50
2015,06,21,13,59,23.50
2015,06,21,14,00,23.60
2015,06,21,14,01,23.60
2015,06,21,14,02,23.60
2015,06,21,14,03,23.60
2015,06,21,14,04,23.70
2015,06,21,14,05,23.80
2015,06,21,14,06,23.80
2015,06,21,14,07,23.70
2015,06,21,14,08,23.70
2015,06,21,14,09,23.70
2015,06,21,14,10,23.70
2015,06,21,14,11,23.80
2015,06,21,14,12,23.90
2015,06,21,14,13,24.00
2015,06,21,14,14,24.00
2015,06,21,14,15,24.00
2015,06,21,14,16,24.10
2015,06,21,14,17,24.20
2015,06,21,14,18,24.30
2015,06,21,14,19,24.40
2015,06,21,14,20,24.40
2015,06,21,14,21,24.40
2015,06,21,14,22,24.40
2015,06,21,14,23,24.40
2015,06,21,14,24,24.40
2015,06,21,14,25,24.30
2015,06,21,14,26,24.20
2015,06,21,14,27,24.20
2015,06,21,14,28,24.20
2015,06,21,14,29,24.20
2015,06,21,14,30,24.30
2015,06,21,14,31,24.40
2015,06,21,14,32,24.40
2015,06,21,14,33,24.40
2015,06,21,14,34,24.40
2015,06,21,14,35,24.40
2015,06,21,14,36,24.20
2015,06,21,14,37,24.20
2015,06,21,14,38,24.10
2015,06,21,14,39,24.10
2015,06,21,14,40,24.10
2015,06,21,14,41,24.00
2015,06,21,14,42,23.90
2015,06,21,14,43,23.80
2015,06,21,14,44,23.80
2015,06,21,14,45,23.80
2015,06,21,14,46,23.90
2015,06,21,14,47,23.90
2015,06,21,14,48,24.00
2015,06,21,14,49,24.10
2015,06,21,14,50,24.20
2015,06,21,14,51,24.20
2015,06,21,14,52,24.20
2015,06,21,14,53,24.10
2015,06,21,14,54,24.10
2015,06,21,14,55,24.10
2015,06,21,14,56,24.00
2015,06,21,14,57,24.00
2015,06,21,14,58,23.90
2015,06,21,14,59,24.00
2015,06,21,15,00,24.00
2015,06,21,15,01,24.20
2015,06,21,15,02,24.20
2015,06,21,15,03,24.20
2015,06,21,15,04,24.20
2015,06,21,15,05,24.10
2015,06,21,15,06,24.10
2015,06,21,15,07,24.20
2015,06,21,15,08,24.30
2015,06,21,15,09,24.40
2015,06,21,15,10,24.40
2015,06,21,15,11,24.50
2015,06,21,15,12,24.60
2015,06,21,15,13,24.60
2015,06,21,15,14,24.60
2015,06,21,15,15,24.70
2015,06,21,15,16,24.70
2015,06,21,15,17,24.90
2015,06,21,15,18,25.00
2015,06,21,15,19,25.20
2015,06,21,15,20,25.40
2015,06,21,15,21,25.40
2015,06,21,15,22,25.40
2015,06,21,15,23,25.40
2015,06,21,15,24,25.40
2015,06,21,15,25,25.40
2015,06,21,15,26,25.40
2015,06,21,15,27,25.40
2015,06,21,15,28,25.40
2015,06,21,15,29,25.40
2015,06,21,15,30,25.40
2015,06,21,15,31,25.40
2015,06,21,15,32,25.50
2015,06,21,15,33,25.50
2015,06,21,15,34,25.60
2015,06,21,15,35,25.60
2015,06,21,15,36,25.60
2015,06,21,15,37,25.70
2015,06,21,15,38,25.80
2015,06,21,15,39,25.80
2015,06,21,15,40,25.80
2015,06,21,15,41,25.60
2015,06,21,15,42,25.40
2015,06,21,15,43,25.30
2015,06,21,15,44,25.30
2015,06,21,15,45,25.20
2015,06,21,15,46,25.20
2015,06,21,15,47,25.30
2015,06,21,15,48,25.30
2015,06,21,15,49,25.30
2015,06,21,15,50,25.40
2015,06,21,15,51,25.40
2015,06,21,15,52,25.50
2015,06,21,15,53,25.60
2015,06,21,15,54,25.70
2015,06,21,15,55,25.70
2015,06,21,15,56,25.80
2015,06,21,15,57,25.80
2015,06,21,15,58,25.90
2015,06,21,15,59,26.00
2015,06,21,16,00,26.10
2015,06,21,16,01,26.20
2015,06,21,16,02,26.20
2015,06,21,16,03,26.20
2015,06,21,16,04,26.20
2015,06,21,16,05,26.20
2015,06,21,16,06,26.20
2015,06,21,16,07,26.20
2015,06,21,16,08,26.30
2015,06,21,16,09,26.30
2015,06,21,16,10,26.40
2015,06,21,16,11,26.40
2015,06,21,16,12,26.40
2015,06,21,16,13,26.40
2015,06,21,16,14,26.40
2015,06,21,16,15,26.30
2015,06,21,16,16,26.20
2015,06,21,16,17,25.90
2015,06,21,16,18,25.70
2015,06,21,16,19,25.40
2015,06,21,16,20,25.20
2015,06,21,16,21,25.10
2015,06,21,16,22,25.10
2015,06,21,16,23,25.00
2015,06,21,16,24,24.90
2015,06,21,16,25,24.90
2015,06,21,16,26,24.90
2015,06,21,16,27,25.00
2015,06,21,16,28,25.10
2015,06,21,16,29,25.20
2015,06,21,16,30,25.20
2015,06,21,16,31,25.20
2015,06,21,16,32,25.20
2015,06,21,16,33,25.20
2015,06,21,16,34,25.20
2015,06,21,16,35,25.10
2015,06,21,16,36,25.00
2015,06,21,16,37,25.00
2015,06,21,16,38,25.10
2015,06,21,16,39,25.10
2015,06,21,16,40,25.10
2015,06,21,16,41,25.10
2015,06,21,16,42,25.20
2015,06,21,16,43,25.10
2015,06,21,16,44,25.00
2015,06,21,16,45,25.00
2015,06,21,16,46,24.80
2015,06,21,16,47,24.80
2015,06,21,16,48,24.70
2015,06,21,16,49,24.70
2015,06,21,16,50,24.60
2015,06,21,16,51,24.60
2015,06,21,16,52,24.60
2015,06,21,16,53,24.60
2015,06,21,16,54,24.60
2015,06,21,16,55,24.50
2015,06,21,16,56,24.40
2015,06,21,16,57,24.30
2015,06,21,16,58,24.30
2015,06,21,16,59,24.30
2015,06,21,17,00,24.40
2015,06,21,17,01,24.40
2015,06,21,17,02,24.40
2015,06,21,17,03,24.50
2015,06,21,17,04,24.60
2015,06,21,17,05,24.60
2015,06,21,17,06,24.60
2015,06,21,17,07,24.60
2015,06,21,17,08,24.60
2015,06,21,17,09,24.60
2015,06,21,17,10,24.60
2015,06,21,17,11,24.70
2015,06,21,17,12,24.70
2015,06,21,17,13,24.70
2015,06,21,17,14,24.70
2015,06,21,17,15,24.70
2015,06,21,17,16,24.70
2015,06,21,17,17,24.70
2015,06,21,17,18,24.60
2015,06,21,17,19,24.60
2015,06,21,17,20,24.60
2015,06,21,17,21,24.60
2015,06,21,17,22,24.60
2015,06,21,17,23,24.60
2015,06,21,17,24,24.70
2015,06,21,17,25,24.80
2015,06,21,17,26,24.80
2015,06,21,17,27,24.90
2015,06,21,17,28,24.90
2015,06,21,17,29,25.00
2015,06,21,17,30,25.00
2015,06,21,17,31,25.00
2015,06,21,17,32,24.90
2015,06,21,17,33,24.80
2015,06,21,17,34,24.70
2015,06,21,17,35,24.60
2015,06,21,17,36,24.60
2015,06,21,17,37,24.50
2015,06,21,17,38,24.50
2015,06,21,17,39,24.40
2015,06,21,17,40,24.30
2015,06,21,17,41,24.30
2015,06,21,17,42,24.30
2015,06,21,17,43,24.20
2015,06,21,17,44,24.20
2015,06,21,17,45,24.20
2015,06,21,17,46,24.20
2015,06,21,17,47,24.20
2015,06,21,17,48,24.10
2015,06,21,17,49,24.00
2015,06,21,17,50,24.00
2015,06,21,17,51,24.00
2015,06,21,17,52,23.90
2015,06,21,17,53,23.90
2015,06,21,17,54,23.90
2015,06,21,17,55,23.90
2015,06,21,17,56,23.90
2015,06,21,17,57,24.00
2015,06,21,17,58,24.00
2015,06,21,17,59,24.00
2015,06,21,18,00,24.10
2015,06,21,18,01,24.20
2015,06,21,18,02,24.20
2015,06,21,18,03,24.30
2015,06,21,18,04,24.30
2015,06,21,18,05,24.30
2015,06,21,18,06,24.40
2015,06,21,18,07,24.40
2015,06,21,18,08,24.40
2015,06,21,18,09,24.30
2015,06,21,18,10,24.20
2015,06,21,18,11,24.10
2015,06,21,18,12,24.10
2015,06,21,18,13,24.00
2015,06,21,18,14,23.90
2015,06,21,18,15,23.90
2015,06,21,18,16,23.90
2015,06,21,18,17,23.80
2015,06,21,18,18,23.70
2015,06,21,18,19,23.70
2015,06,21,18,20,23.70
2015,06,21,18,21,23.70
2015,06,21,18,22,23.70
2015,06,21,18,23,23.60
2015,06,21,18,24,23.60
2015,06,21,18,25,23.60
2015,06,21,18,26,23.50
2015,06,21,18,27,23.50
2015,06,21,18,28,23.50
2015,06,21,18,29,23.50
2015,06,21,18,30,23.50
2015,06,21,18,31,23.40
2015,06,21,18,32,23.40
2015,06,21,18,33,23.40
2015,06,21,18,34,23.30
2015,06,21,18,35,23.30
2015,06,21,18,36,23.30
2015,06,21,18,37,23.20
2015,06,21,18,38,23.20
2015,06,21,18,39,23.10
2015,06,21,18,40,23.10
2015,06,21,18,41,23.10
2015,06,21,18,42,23.10
2015,06,21,18,43,23.10
2015,06,21,18,44,23.10
2015,06,21,18,45,23.10
2015,06,21,18,46,23.10
2015,06,21,18,47,23.10
2015,06,21,18,48,23.10
2015,06,21,18,49,23.10
2015,06,21,18,50,23.00
2015,06,21,18,51,23.00
2015,06,21,18,52,22.90
2015,06,21,18,53,22.80
2015,06,21,18,54,22.80
2015,06,21,18,55,22.80
2015,06,21,18,56,22.80
2015,06,21,18,57,22.80
2015,06,21,18,58,22.80
2015,06,21,18,59,22.80
2015,06,21,19,00,22.70
2015,06,21,19,01,22.70
2015,06,21,19,02,22.70
2015,06,21,19,03,22.70
2015,06,21,19,04,22.60
2015,06,21,19,05,22.60
2015,06,21,19,06,22.60
2015,06,21,19,07,22.60
2015,06,21,19,08,22.60
2015,06,21,19,09,22.70
2015,06,21,19,10,22.70
2015,06,21,19,11,22.70
2015,06,21,19,12,22.70
2015,06,21,19,13,22.60
2015,06,21,19,14,22.60
2015,06,21,19,15,22.60
2015,06,21,19,16,22.50
2015,06,21,19,17,22.50
2015,06,21,19,18,22.50
2015,06,21,19,19,22.40
2015,06,21,19,20,22.40
2015,06,21,19,21,22.40
2015,06,21,19,22,22.40
2015,06,21,19,23,22.40
2015,06,21,19,24,22.40
2015,06,21,19,25,22.40
2015,06,21,19,26,22.40
2015,06,21,19,27,22.40
2015,06,21,19,28,22.40
2015,06,21,19,29,22.40
2015,06,21,19,30,22.50
2015,06,21,19,31,22.50
2015,06,21,19,32,22.60
2015,06,21,19,33,22.60
2015,06,21,19,34,22.60
2015,06,21,19,35,22.70
2015,06,21,19,36,22.70